CFG7DY LDSP-EDDF

Flight info

Callsign CFG7DY
Flight time 1h 28m
Altitude 38000
Route ZDA DCT NIPEL DCT SIMBA DCT AKINI T161 DEBHI DEBHI1C
Aircraft A21N/M-SBDE3FGHIJ1J4J7LORVWXYZ/SB2D1G1

Departure

Time 2026-05-08 01:46
Airport Split Saint Jerome Airport (LDSP)

Arrival

Time 2026-05-08 03:14
Airport Frankfurt Main Airport (EDDF)
Time Latitude Longitude Altitude Speed Heading
2026-05-08 01:24 43.53728 16.29868 71 ft 0 kts 114°
2026-05-08 01:41 43.53732 16.29875 71 ft 1 kts 39°
2026-05-08 01:42 43.53743 16.29873 64 ft 5 kts 349°
2026-05-08 01:42 43.53756 16.29859 66 ft 5 kts 305°
2026-05-08 01:42 43.53750 16.29791 67 ft 10 kts 245°
2026-05-08 01:42 43.53699 16.29685 69 ft 14 kts 233°
2026-05-08 01:43 43.53687 16.29596 71 ft 9 kts 278°
2026-05-08 01:43 43.53693 16.29504 86 ft 11 kts 266°
2026-05-08 01:43 43.53641 16.29341 89 ft 21 kts 232°
2026-05-08 01:43 43.53550 16.29176 92 ft 24 kts 233°
2026-05-08 01:44 43.53451 16.28998 90 ft 23 kts 232°
2026-05-08 01:44 43.53354 16.28822 91 ft 23 kts 232°
2026-05-08 01:44 43.53247 16.28648 87 ft 21 kts 209°
2026-05-08 01:44 43.53207 16.28584 91 ft 1 kts 313°
2026-05-08 01:45 43.53213 16.28585 90 ft 2 kts
2026-05-08 01:45 43.53229 16.28601 88 ft 3 kts 47°
2026-05-08 01:45 43.53327 16.28772 92 ft 54 kts 53°
2026-05-08 01:45 43.53686 16.29426 83 ft 118 kts 53°
2026-05-08 01:46 43.54318 16.30562 125 ft 170 kts 52°
2026-05-08 01:46 43.54974 16.31782 731 ft 168 kts 58°
2026-05-08 01:46 43.55270 16.33361 1346 ft 181 kts 102°
2026-05-08 01:46 43.54569 16.34854 1831 ft 204 kts 135°
2026-05-08 01:47 43.53291 16.35980 2122 ft 236 kts 152°
2026-05-08 01:47 43.51805 16.37019 2895 ft 244 kts 151°
2026-05-08 01:47 43.50269 16.38138 3658 ft 254 kts 151°
2026-05-08 01:48 43.47088 16.40587 5222 ft 258 kts 153°
2026-05-08 01:48 43.45440 16.41392 5422 ft 254 kts 175°
2026-05-08 01:48 43.43695 16.40841 5961 ft 268 kts 212°
2026-05-08 01:48 43.42478 16.38955 6893 ft 273 kts 243°
2026-05-08 01:49 43.41727 16.36553 7909 ft 274 kts 245°
2026-05-08 01:49 43.41021 16.34112 8928 ft 275 kts 253°
2026-05-08 01:49 43.40792 16.31481 9883 ft 281 kts 272°
2026-05-08 01:49 43.41277 16.28843 10571 ft 296 kts 295°
2026-05-08 01:50 43.42556 16.26504 10923 ft 321 kts 311°
2026-05-08 01:50 43.44192 16.24295 11275 ft 343 kts 315°
2026-05-08 01:50 43.45977 16.21991 11821 ft 356 kts 314°
2026-05-08 01:50 43.47789 16.19641 12650 ft 360 kts 314°
2026-05-08 01:51 43.49608 16.17259 13470 ft 364 kts 314°
2026-05-08 01:51 43.51456 16.14822 14244 ft 368 kts 314°
2026-05-08 01:51 43.53316 16.12355 14956 ft 373 kts 314°
2026-05-08 01:51 43.55198 16.09853 15661 ft 377 kts 314°
2026-05-08 01:52 43.57100 16.07319 16385 ft 382 kts 313°
2026-05-08 01:52 43.58991 16.04795 17053 ft 386 kts 313°
2026-05-08 01:52 43.60930 16.02205 17736 ft 390 kts 313°
2026-05-08 01:52 43.62889 15.99585 18384 ft 394 kts 313°
2026-05-08 01:53 43.64864 15.96940 18967 ft 397 kts 313°
2026-05-08 01:53 43.66856 15.94270 19572 ft 400 kts 313°
2026-05-08 01:53 43.68865 15.91576 20170 ft 402 kts 313°
2026-05-08 01:53 43.70888 15.88859 20750 ft 405 kts 313°
2026-05-08 01:54 43.72886 15.86174 21308 ft 408 kts 313°
2026-05-08 01:54 43.74926 15.83429 21857 ft 410 kts 313°
2026-05-08 01:54 43.76991 15.80646 22406 ft 413 kts 312°
2026-05-08 01:54 43.79061 15.77856 22925 ft 416 kts 312°
2026-05-08 01:55 43.81094 15.75112 23442 ft 418 kts 312°
2026-05-08 01:55 43.83195 15.72273 23915 ft 421 kts 312°
2026-05-08 01:55 43.85330 15.69386 24345 ft 424 kts 312°
2026-05-08 01:55 43.87400 15.66584 24800 ft 426 kts 312°
2026-05-08 01:56 43.89535 15.63690 25218 ft 429 kts 311°
2026-05-08 01:56 43.91665 15.60800 25614 ft 431 kts 311°
2026-05-08 01:56 43.93821 15.57872 26075 ft 433 kts 311°
2026-05-08 01:56 43.95974 15.54944 26503 ft 434 kts 311°
2026-05-08 01:57 43.98140 15.51995 26900 ft 437 kts 311°
2026-05-08 01:57 44.00316 15.49030 27265 ft 439 kts 311°
2026-05-08 01:57 44.02477 15.46082 27613 ft 441 kts 311°
2026-05-08 01:57 44.04672 15.43085 27983 ft 443 kts 311°
2026-05-08 01:58 44.06895 15.40081 28352 ft 445 kts 313°
2026-05-08 01:58 44.09317 15.37363 28840 ft 449 kts 321°
2026-05-08 01:58 44.12049 15.35194 29355 ft 454 kts 330°
2026-05-08 01:58 44.14899 15.33459 29862 ft 454 kts 332°
2026-05-08 01:59 44.17843 15.31835 30435 ft 450 kts 333°
2026-05-08 01:59 44.20763 15.30305 30969 ft 445 kts 333°
2026-05-08 01:59 44.23672 15.28802 31331 ft 445 kts 333°
2026-05-08 01:59 44.26579 15.27292 31644 ft 444 kts 333°
2026-05-08 02:00 44.29446 15.25789 31974 ft 444 kts 333°
2026-05-08 02:00 44.32330 15.24262 32290 ft 443 kts 333°
2026-05-08 02:00 44.35211 15.22726 32644 ft 441 kts 332°
2026-05-08 02:00 44.38053 15.21202 33054 ft 438 kts 332°
2026-05-08 02:01 44.40875 15.19689 33588 ft 432 kts 332°
2026-05-08 02:01 44.43678 15.18182 33968 ft 430 kts 331°
2026-05-08 02:01 44.46475 15.16673 34238 ft 429 kts 331°
2026-05-08 02:01 44.49270 15.15161 34451 ft 430 kts 331°
2026-05-08 02:02 44.52064 15.13647 34645 ft 431 kts 331°
2026-05-08 02:02 44.54868 15.12129 34857 ft 432 kts 331°
2026-05-08 02:02 44.57668 15.10613 35071 ft 431 kts 331°
2026-05-08 02:02 44.60469 15.09098 35305 ft 430 kts 331°
2026-05-08 02:03 44.63263 15.07585 35521 ft 430 kts 331°
2026-05-08 02:03 44.66030 15.06083 35682 ft 431 kts 331°
2026-05-08 02:03 44.68836 15.04558 35817 ft 432 kts 331°
2026-05-08 02:03 44.71647 15.03030 35978 ft 432 kts 331°
2026-05-08 02:04 44.74446 15.01507 36145 ft 432 kts 331°
2026-05-08 02:04 44.77256 14.99976 36247 ft 432 kts 331°
2026-05-08 02:04 44.80034 14.98459 36390 ft 433 kts 331°
2026-05-08 02:04 44.82853 14.96919 36550 ft 433 kts 331°
2026-05-08 02:05 44.85674 14.95378 36729 ft 433 kts 331°
2026-05-08 02:05 44.88481 14.93843 36892 ft 433 kts 331°
2026-05-08 02:05 44.91268 14.92318 37032 ft 433 kts 331°
2026-05-08 02:05 44.94068 14.90784 37179 ft 433 kts 331°
2026-05-08 02:06 44.96883 14.89239 37321 ft 434 kts 331°
2026-05-08 02:06 44.99709 14.87687 37456 ft 434 kts 332°
2026-05-08 02:06 45.02485 14.86161 37648 ft 432 kts 332°
2026-05-08 02:06 45.05303 14.84611 37788 ft 432 kts 332°
2026-05-08 02:07 45.08100 14.83070 37894 ft 433 kts 332°
2026-05-08 02:07 45.10880 14.81536 37987 ft 433 kts 332°
2026-05-08 02:07 45.16502 14.78427 38071 ft 434 kts 332°
2026-05-08 02:08 45.22129 14.75306 38089 ft 439 kts 332°
2026-05-08 02:08 45.27867 14.72118 38077 ft 445 kts 332°
2026-05-08 02:09 45.33652 14.68902 38076 ft 451 kts 333°
2026-05-08 02:09 45.39495 14.65650 38073 ft 451 kts 333°
2026-05-08 02:10 45.45340 14.62388 38063 ft 451 kts 333°
2026-05-08 02:10 45.51166 14.59128 38083 ft 451 kts 333°
2026-05-08 02:11 45.57034 14.55837 38080 ft 452 kts 333°
2026-05-08 02:11 45.62848 14.52568 38071 ft 451 kts 333°
2026-05-08 02:12 45.68695 14.49274 38076 ft 451 kts 333°
2026-05-08 02:12 45.74542 14.45970 38074 ft 451 kts 333°
2026-05-08 02:13 45.79405 14.43218 38075 ft 451 kts 333°
2026-05-08 02:13 45.85252 14.39900 38074 ft 452 kts 333°
2026-05-08 02:14 45.91097 14.36575 38074 ft 451 kts 333°
2026-05-08 02:14 45.96937 14.33247 38075 ft 451 kts 333°
2026-05-08 02:15 46.02744 14.29931 38074 ft 451 kts 333°
2026-05-08 02:15 46.08584 14.26588 38082 ft 451 kts 333°
2026-05-08 02:16 46.14412 14.23240 38079 ft 453 kts 333°
2026-05-08 02:16 46.20278 14.19864 38075 ft 454 kts 333°
2026-05-08 02:17 46.26121 14.16500 38077 ft 453 kts 333°
2026-05-08 02:17 46.31990 14.13112 38093 ft 454 kts 333°
2026-05-08 02:18 46.37879 14.09703 38075 ft 455 kts 333°
2026-05-08 02:18 46.43771 14.06284 38089 ft 456 kts 333°
2026-05-08 02:19 46.49627 14.02886 38077 ft 456 kts 333°
2026-05-08 02:19 46.55566 13.99511 38069 ft 456 kts 334°
2026-05-08 02:20 46.61451 13.96195 38074 ft 456 kts 334°
2026-05-08 02:20 46.67378 13.92844 38070 ft 455 kts 334°
2026-05-08 02:21 46.73258 13.89502 38075 ft 456 kts 334°
2026-05-08 02:21 46.79165 13.86134 38078 ft 456 kts 334°
2026-05-08 02:22 46.85080 13.82754 38080 ft 456 kts 334°
2026-05-08 02:22 46.91000 13.79364 38076 ft 455 kts 334°
2026-05-08 02:23 46.96873 13.75992 38074 ft 456 kts 334°
2026-05-08 02:23 47.02781 13.72591 38074 ft 455 kts 334°
2026-05-08 02:24 47.08692 13.69183 38079 ft 455 kts 334°
2026-05-08 02:24 47.14562 13.65790 38077 ft 455 kts 334°
2026-05-08 02:25 47.20450 13.62378 38089 ft 455 kts 334°
2026-05-08 02:25 47.26358 13.58945 38083 ft 455 kts 334°
2026-05-08 02:26 47.32226 13.55528 38080 ft 455 kts 334°
2026-05-08 02:26 47.38126 13.52085 38081 ft 455 kts 334°
2026-05-08 02:27 47.44019 13.48638 38085 ft 456 kts 334°
2026-05-08 02:27 47.49894 13.45191 38087 ft 456 kts 334°
2026-05-08 02:28 47.55824 13.41705 38081 ft 457 kts 334°
2026-05-08 02:28 47.61715 13.38233 38077 ft 457 kts 334°
2026-05-08 02:29 47.67634 13.34736 38087 ft 457 kts 334°
2026-05-08 02:29 47.73507 13.31259 38076 ft 457 kts 334°
2026-05-08 02:30 47.79421 13.27748 38076 ft 457 kts 334°
2026-05-08 02:30 47.85336 13.24227 38076 ft 457 kts 334°
2026-05-08 02:31 47.91203 13.20726 38074 ft 457 kts 334°
2026-05-08 02:31 47.97111 13.17192 38074 ft 457 kts 334°
2026-05-08 02:32 48.03030 13.13644 38072 ft 457 kts 334°
2026-05-08 02:32 48.08880 13.10128 38070 ft 456 kts 334°
2026-05-08 02:33 48.14781 13.06572 38072 ft 456 kts 334°
2026-05-08 02:33 48.20622 13.02825 38075 ft 453 kts 327°
2026-05-08 02:34 48.25543 12.97166 38074 ft 444 kts 311°
2026-05-08 02:34 48.29741 12.90433 38070 ft 443 kts 308°
2026-05-08 02:35 48.33824 12.83434 38076 ft 443 kts 308°
2026-05-08 02:35 48.37854 12.76481 38078 ft 443 kts 308°
2026-05-08 02:36 48.41930 12.69490 38071 ft 444 kts 308°
2026-05-08 02:36 48.46025 12.62484 38072 ft 444 kts 308°
2026-05-08 02:37 48.50086 12.55524 38074 ft 444 kts 308°
2026-05-08 02:37 48.54163 12.48517 38072 ft 444 kts 308°
2026-05-08 02:38 48.58219 12.41524 38072 ft 444 kts 308°
2026-05-08 02:38 48.62287 12.34493 38072 ft 444 kts 308°
2026-05-08 02:39 48.66341 12.27466 38075 ft 444 kts 308°
2026-05-08 02:39 48.70395 12.20421 38067 ft 446 kts 308°
2026-05-08 02:40 48.73976 12.12825 38066 ft 441 kts 294°
2026-05-08 02:40 48.75888 12.04059 38067 ft 437 kts 280°
2026-05-08 02:41 48.76973 11.94975 38074 ft 438 kts 278°
2026-05-08 02:41 48.77898 11.85894 38086 ft 438 kts 277°
2026-05-08 02:42 48.78830 11.76745 38077 ft 439 kts 278°
2026-05-08 02:42 48.79784 11.67590 38072 ft 439 kts 278°
2026-05-08 02:43 48.80737 11.58476 38072 ft 439 kts 278°
2026-05-08 02:43 48.81688 11.49305 38083 ft 439 kts 278°
2026-05-08 02:44 48.82626 11.40170 38075 ft 439 kts 278°
2026-05-08 02:44 48.83594 11.31045 38074 ft 440 kts 281°
2026-05-08 02:45 48.85679 11.22329 38073 ft 443 kts 297°
2026-05-08 02:45 48.89498 11.14928 38075 ft 448 kts 312°
2026-05-08 02:46 48.94027 11.08419 38101 ft 450 kts 315°
2026-05-08 02:46 48.98680 11.02037 38100 ft 450 kts 315°
2026-05-08 02:47 49.03282 10.95677 38110 ft 438 kts 315°
2026-05-08 02:47 49.07706 10.89483 38114 ft 432 kts 314°
2026-05-08 02:48 49.12125 10.83239 38117 ft 431 kts 314°
2026-05-08 02:48 49.16507 10.77025 38128 ft 431 kts 314°
2026-05-08 02:49 49.20267 10.70004 37808 ft 424 kts 296°
2026-05-08 02:49 49.21587 10.65989 37559 ft 423 kts 294°
2026-05-08 02:49 49.22829 10.61947 37089 ft 424 kts 293°
2026-05-08 02:50 49.24077 10.57813 35895 ft 434 kts 293°
2026-05-08 02:50 49.25346 10.53582 35058 ft 431 kts 292°
2026-05-08 02:50 49.26575 10.49486 34331 ft 419 kts 292°
2026-05-08 02:50 49.27788 10.45428 33709 ft 416 kts 293°
2026-05-08 02:51 49.28979 10.41436 33225 ft 411 kts 293°
2026-05-08 02:51 49.30166 10.37454 32579 ft 409 kts 293°
2026-05-08 02:51 49.31348 10.33482 31899 ft 408 kts 293°
2026-05-08 02:51 49.32511 10.29564 31227 ft 408 kts 293°
2026-05-08 02:52 49.33683 10.25613 30547 ft 408 kts 293°
2026-05-08 02:52 49.34862 10.21632 29787 ft 409 kts 292°
2026-05-08 02:52 49.36040 10.17648 29009 ft 408 kts 292°
2026-05-08 02:52 49.37208 10.13690 28419 ft 406 kts 292°
2026-05-08 02:53 49.38371 10.09746 27947 ft 405 kts 292°
2026-05-08 02:53 49.39515 10.05859 27448 ft 403 kts 292°
2026-05-08 02:53 49.40663 10.01951 26928 ft 401 kts 292°
2026-05-08 02:53 49.41805 9.98057 26410 ft 398 kts 292°
2026-05-08 02:54 49.42942 9.94174 25906 ft 395 kts 292°
2026-05-08 02:54 49.44064 9.90335 25382 ft 393 kts 292°
2026-05-08 02:54 49.45184 9.86500 24867 ft 390 kts 292°
2026-05-08 02:54 49.46277 9.82748 24348 ft 388 kts 292°
2026-05-08 02:55 49.47381 9.78952 23820 ft 386 kts 292°
2026-05-08 02:55 49.49557 9.71457 22705 ft 380 kts 292°
2026-05-08 02:55 49.50620 9.67787 22194 ft 378 kts 292°
2026-05-08 02:56 49.51697 9.64060 21668 ft 375 kts 292°
2026-05-08 02:56 49.52739 9.60451 21171 ft 373 kts 292°
2026-05-08 02:56 49.53790 9.56808 20663 ft 370 kts 292°
2026-05-08 02:56 49.54834 9.53179 20142 ft 368 kts 292°
2026-05-08 02:57 49.55866 9.49589 19624 ft 365 kts 292°
2026-05-08 02:57 49.56892 9.46014 19119 ft 363 kts 292°
2026-05-08 02:57 49.57893 9.42519 18615 ft 359 kts 292°
2026-05-08 02:57 49.58905 9.38985 18074 ft 356 kts 292°
2026-05-08 02:58 49.59897 9.35512 17540 ft 353 kts 292°
2026-05-08 02:58 49.60885 9.32047 17055 ft 351 kts 292°
2026-05-08 02:58 49.61866 9.28602 16561 ft 350 kts 292°
2026-05-08 02:58 49.62840 9.25181 16061 ft 348 kts 292°
2026-05-08 02:59 49.63809 9.21766 15584 ft 346 kts 292°
2026-05-08 02:59 49.64755 9.18430 15079 ft 343 kts 292°
2026-05-08 02:59 49.65718 9.15032 14509 ft 342 kts 293°
2026-05-08 02:59 49.66664 9.11689 14007 ft 338 kts 293°
2026-05-08 03:00 49.67593 9.08398 13521 ft 336 kts 293°
2026-05-08 03:00 49.68524 9.05098 12996 ft 334 kts 293°
2026-05-08 03:00 49.69450 9.01811 12532 ft 332 kts 293°
2026-05-08 03:00 49.70367 8.98553 12066 ft 330 kts 293°
2026-05-08 03:01 49.71279 8.95306 11598 ft 328 kts 293°
2026-05-08 03:01 49.72183 8.92083 11126 ft 326 kts 293°
2026-05-08 03:01 49.72780 8.89953 10823 ft 325 kts 293°
2026-05-08 03:01 49.73663 8.86797 10617 ft 311 kts 292°
2026-05-08 03:02 49.74759 8.82875 10492 ft 289 kts 292°
2026-05-08 03:02 49.75291 8.80970 10420 ft 280 kts 292°
2026-05-08 03:02 49.76038 8.78294 10310 ft 270 kts 292°
2026-05-08 03:02 49.76774 8.75649 10109 ft 264 kts 292°
2026-05-08 03:03 49.77506 8.73020 9725 ft 267 kts 292°
2026-05-08 03:03 49.78235 8.70393 9385 ft 265 kts 292°
2026-05-08 03:03 49.78960 8.67782 9059 ft 263 kts 292°
2026-05-08 03:03 49.79682 8.65178 8722 ft 262 kts 292°
2026-05-08 03:04 49.80387 8.62630 8416 ft 260 kts 292°
2026-05-08 03:04 49.81100 8.60053 8091 ft 259 kts 292°
2026-05-08 03:04 49.81808 8.57489 7769 ft 258 kts 292°
2026-05-08 03:04 49.82513 8.54935 7457 ft 256 kts 292°
2026-05-08 03:05 49.83210 8.52403 7136 ft 255 kts 292°
2026-05-08 03:05 49.83893 8.49926 6877 ft 248 kts 292°
2026-05-08 03:05 49.84565 8.47486 6542 ft 246 kts 292°
2026-05-08 03:05 49.85235 8.45050 6211 ft 246 kts 292°
2026-05-08 03:06 49.85904 8.42614 5902 ft 245 kts 292°
2026-05-08 03:06 49.86570 8.40189 5627 ft 240 kts 292°
2026-05-08 03:06 49.87213 8.37842 5319 ft 233 kts 292°
2026-05-08 03:06 49.87850 8.35516 5124 ft 234 kts 292°
2026-05-08 03:07 49.88483 8.33202 5056 ft 234 kts 293°
2026-05-08 03:07 49.89114 8.30895 4965 ft 234 kts 293°
2026-05-08 03:07 49.89746 8.28578 4689 ft 232 kts 293°
2026-05-08 03:07 49.90360 8.26326 4510 ft 218 kts 293°
2026-05-08 03:08 49.90965 8.24223 4193 ft 210 kts 298°
2026-05-08 03:08 49.91887 8.22498 4000 ft 210 kts 323°
2026-05-08 03:08 49.93215 8.21618 3987 ft 204 kts 352°
2026-05-08 03:08 49.94541 8.21863 3975 ft 191 kts 27°
2026-05-08 03:09 49.95583 8.23113 3997 ft 190 kts 45°
2026-05-08 03:09 49.96347 8.24783 4000 ft 190 kts 63°
2026-05-08 03:09 49.96847 8.26664 3983 ft 186 kts 70°
2026-05-08 03:09 49.97285 8.28533 3814 ft 181 kts 69°
2026-05-08 03:10 49.97726 8.30366 3548 ft 179 kts 69°
2026-05-08 03:10 49.98158 8.32158 3285 ft 179 kts 69°
2026-05-08 03:10 49.98589 8.33955 3023 ft 177 kts 70°
2026-05-08 03:10 49.99017 8.35744 2806 ft 174 kts 70°
2026-05-08 03:11 49.99428 8.37461 2550 ft 163 kts 70°
2026-05-08 03:11 49.99811 8.39059 2340 ft 155 kts 70°
2026-05-08 03:11 50.00187 8.40630 2131 ft 155 kts 70°
2026-05-08 03:11 50.00551 8.42148 1907 ft 145 kts 70°
2026-05-08 03:12 50.00896 8.43590 1724 ft 140 kts 70°
2026-05-08 03:12 50.01228 8.44976 1518 ft 138 kts 70°
2026-05-08 03:12 50.01562 8.46372 1341 ft 137 kts 69°
2026-05-08 03:12 50.01892 8.47752 1119 ft 137 kts 69°
2026-05-08 03:13 50.02224 8.49130 923 ft 136 kts 68°
2026-05-08 03:13 50.02550 8.50506 751 ft 135 kts 68°
2026-05-08 03:13 50.02878 8.51865 574 ft 134 kts 67°
2026-05-08 03:13 50.03206 8.53221 404 ft 133 kts 68°
2026-05-08 03:14 50.03520 8.54518 354 ft 119 kts 70°
2026-05-08 03:14 50.03738 8.55460 356 ft 72 kts 70°
2026-05-08 03:14 50.03888 8.56080 358 ft 56 kts 70°
2026-05-08 03:14 50.04004 8.56557 365 ft 32 kts 64°
2026-05-08 03:15 50.04156 8.56755 362 ft 27 kts 21°
2026-05-08 03:15 50.04276 8.56882 365 ft 19 kts 63°
2026-05-08 03:15 50.04321 8.57075 369 ft 19 kts 70°
2026-05-08 03:15 50.04366 8.57273 368 ft 20 kts 72°
2026-05-08 03:16 50.04412 8.57479 366 ft 21 kts 70°
2026-05-08 03:16 50.04461 8.57680 369 ft 20 kts 69°
2026-05-08 03:16 50.04514 8.57895 368 ft 21 kts 71°
2026-05-08 03:16 50.04612 8.58012 364 ft 22 kts 345°
2026-05-08 03:17 50.04751 8.57954 366 ft 17 kts 17°
2026-05-08 03:17 50.04803 8.58044 364 ft 10 kts 69°
2026-05-08 03:17 50.04802 8.58131 364 ft 6 kts 129°
2026-05-08 03:17 50.04782 8.58153 363 ft 4 kts 153°
2026-05-08 03:18 50.04768 8.58161 368 ft 3 kts 159°
2026-05-08 03:18 50.04755 8.58169 368 ft 2 kts 160°
2026-05-08 03:18 50.04746 8.58174 366 ft 0 kts 159°